SJX001 KLAX-RCTP

Flight info

Callsign SJX001
Flight time N/A
Altitude 34000
Route SUMMR2 MCKEY LIBBO BRINY BOARS AMAKR LINUZ NATTE ZANNG 50N140W 54N150W 56N160W CREMR OBOYD NIKLL R220 NODAN R217 SDE Y512 GTC Y142 SAMON Y14 MIHOU Y206 KALEK Z84 PSN Y572 CJU Z82 PANSI Y711 MUGUS Y742 SALMI B576 BAKER
Aircraft A359/H-VGDW/C

Departure

Time 2026-04-25 00:49
Airport Los Angeles International Airport (KLAX)

Arrival

Time N/A
Airport Taiwan Taoyuan International Airport (RCTP)
Time Latitude Longitude Altitude Speed Heading
2026-04-25 00:25 33.94524 -118.41166 132 ft 0 kts 99°
2026-04-25 00:38 33.94526 -118.41179 128 ft 2 kts 97°
2026-04-25 00:38 33.94528 -118.41198 132 ft 2 kts 95°
2026-04-25 00:38 33.94528 -118.41218 132 ft 2 kts 89°
2026-04-25 00:38 33.94527 -118.41238 132 ft 2 kts 72°
2026-04-25 00:39 33.94518 -118.41254 132 ft 2 kts 19°
2026-04-25 00:39 33.94506 -118.41256 129 ft 1 kts 356°
2026-04-25 00:39 33.94505 -118.41256 130 ft 0 kts 355°
2026-04-25 00:41 33.94538 -118.41262 120 ft 11 kts 351°
2026-04-25 00:42 33.94615 -118.41273 126 ft 11 kts 353°
2026-04-25 00:42 33.94692 -118.41285 126 ft 11 kts 353°
2026-04-25 00:42 33.94770 -118.41288 129 ft 10 kts 17°
2026-04-25 00:42 33.94802 -118.41226 124 ft 9 kts 76°
2026-04-25 00:43 33.94810 -118.41151 132 ft 9 kts 83°
2026-04-25 00:43 33.94818 -118.41072 126 ft 10 kts 83°
2026-04-25 00:43 33.94826 -118.40988 126 ft 10 kts 83°
2026-04-25 00:43 33.94835 -118.40901 132 ft 11 kts 83°
2026-04-25 00:44 33.94843 -118.40811 132 ft 11 kts 83°
2026-04-25 00:44 33.94852 -118.40718 132 ft 11 kts 83°
2026-04-25 00:44 33.94861 -118.40623 123 ft 12 kts 83°
2026-04-25 00:44 33.94871 -118.40523 132 ft 12 kts 83°
2026-04-25 00:45 33.94881 -118.40421 129 ft 12 kts 83°
2026-04-25 00:45 33.94892 -118.40316 128 ft 13 kts 83°
2026-04-25 00:45 33.94903 -118.40208 123 ft 13 kts 83°
2026-04-25 00:45 33.94915 -118.40098 125 ft 13 kts 83°
2026-04-25 00:46 33.94927 -118.39987 131 ft 10 kts 79°
2026-04-25 00:46 33.94932 -118.39964 131 ft 1 kts 72°
2026-04-25 00:46 33.94940 -118.39946 130 ft 5 kts 60°
2026-04-25 00:47 33.94971 -118.39917 123 ft 6 kts 21°
2026-04-25 00:47 33.94998 -118.39913 128 ft 6 kts
2026-04-25 00:47 33.95036 -118.39949 126 ft 9 kts 290°
2026-04-25 00:47 33.95034 -118.40037 126 ft 11 kts 259°
2026-04-25 00:48 33.95025 -118.40121 132 ft 23 kts 263°
2026-04-25 00:48 33.94981 -118.40539 130 ft 82 kts 263°
2026-04-25 00:48 33.94885 -118.41465 132 ft 140 kts 263°
2026-04-25 00:48 33.94755 -118.42794 395 ft 165 kts 263°
2026-04-25 00:49 33.94614 -118.44153 1154 ft 163 kts 262°
2026-04-25 00:49 33.94471 -118.45583 1658 ft 181 kts 262°
2026-04-25 00:49 33.94318 -118.47137 1838 ft 197 kts 263°
2026-04-25 00:49 33.94236 -118.48849 2020 ft 212 kts 267°
2026-04-25 00:50 33.94194 -118.50709 2141 ft 232 kts 268°
2026-04-25 00:50 33.94104 -118.52729 2367 ft 248 kts 265°
2026-04-25 00:50 33.93944 -118.54828 2805 ft 254 kts 263°
2026-04-25 00:50 33.93764 -118.56971 3290 ft 259 kts 264°
2026-04-25 00:51 33.93587 -118.59116 3809 ft 261 kts 264°
2026-04-25 00:51 33.93411 -118.61295 4379 ft 261 kts 264°
2026-04-25 00:51 33.93238 -118.63486 4918 ft 263 kts 264°
2026-04-25 00:51 33.93066 -118.65684 5448 ft 264 kts 264°
2026-04-25 00:52 33.92894 -118.67901 5997 ft 265 kts 264°
2026-04-25 00:52 33.92723 -118.70093 6512 ft 266 kts 264°
2026-04-25 00:52 33.92550 -118.72321 7006 ft 268 kts 265°
2026-04-25 00:52 33.92376 -118.74570 7511 ft 269 kts 264°
2026-04-25 00:53 33.92199 -118.76826 8011 ft 271 kts 264°
2026-04-25 00:53 33.92021 -118.79098 8528 ft 273 kts 264°
2026-04-25 00:53 33.91845 -118.81346 9067 ft 274 kts 265°
2026-04-25 00:53 33.91723 -118.83647 9605 ft 275 kts 269°
2026-04-25 00:54 33.91753 -118.85950 10144 ft 276 kts 271°
2026-04-25 00:54 33.91825 -118.88305 10388 ft 287 kts 272°
2026-04-25 00:54 33.91907 -118.90774 10585 ft 300 kts 272°
2026-04-25 00:54 33.91988 -118.93306 10782 ft 312 kts 272°
2026-04-25 00:55 33.92070 -118.95981 10979 ft 324 kts 272°
2026-04-25 00:55 33.92153 -118.98735 11171 ft 335 kts 272°
2026-04-25 00:55 33.92479 -119.01569 11340 ft 347 kts 285°
2026-04-25 00:55 33.93493 -119.04226 11510 ft 359 kts 298°
2026-04-25 00:56 33.94823 -119.06828 11702 ft 369 kts 300°
2026-04-25 00:56 33.96211 -119.09455 12037 ft 373 kts 300°
2026-04-25 00:56 33.97604 -119.12107 12459 ft 375 kts 300°
2026-04-25 00:56 33.99001 -119.14786 12895 ft 376 kts 300°
2026-04-25 00:57 34.00427 -119.17400 13297 ft 379 kts 304°
2026-04-25 00:57 34.02270 -119.19710 13690 ft 385 kts 317°
2026-04-25 00:57 34.04426 -119.21659 14069 ft 388 kts 321°
2026-04-25 00:57 34.06650 -119.23548 14420 ft 390 kts 321°
2026-04-25 00:58 34.08880 -119.25439 14777 ft 392 kts 321°
2026-04-25 00:58 34.11092 -119.27324 15110 ft 394 kts 321°
2026-04-25 00:58 34.13334 -119.29245 15451 ft 396 kts 321°
2026-04-25 00:58 34.15589 -119.31181 15808 ft 397 kts 321°
2026-04-25 00:59 34.17846 -119.33123 16161 ft 399 kts 320°
2026-04-25 00:59 34.20114 -119.35077 16510 ft 401 kts 320°
2026-04-25 00:59 34.22392 -119.37042 16873 ft 402 kts 320°
2026-04-25 00:59 34.24647 -119.38989 17215 ft 403 kts 320°
2026-04-25 01:00 34.26942 -119.40972 17550 ft 405 kts 320°
2026-04-25 01:00 34.29242 -119.42960 17879 ft 407 kts 320°
2026-04-25 01:00 34.31552 -119.44959 18239 ft 408 kts 319°
2026-04-25 01:00 34.33866 -119.46962 18537 ft 409 kts 319°
2026-04-25 01:01 34.36184 -119.48971 18817 ft 410 kts 319°
2026-04-25 01:01 34.38476 -119.50958 19104 ft 411 kts 319°
2026-04-25 01:01 34.40727 -119.53075 19403 ft 408 kts 314°
2026-04-25 01:01 34.42724 -119.55511 19683 ft 405 kts 307°
2026-04-25 01:02 34.44578 -119.58098 20011 ft 405 kts 306°
2026-04-25 01:02 34.46406 -119.60704 20320 ft 406 kts 306°
2026-04-25 01:02 34.48217 -119.63288 20629 ft 406 kts 306°
2026-04-25 01:02 34.50051 -119.65898 20953 ft 407 kts 306°
2026-04-25 01:03 34.51894 -119.68518 21218 ft 409 kts 306°
2026-04-25 01:03 34.53745 -119.71147 21530 ft 409 kts 306°
2026-04-25 01:03 34.55596 -119.73786 21935 ft 408 kts 305°
2026-04-25 01:03 34.57441 -119.76413 22208 ft 410 kts 305°
2026-04-25 01:04 34.59273 -119.79025 22477 ft 412 kts 305°
2026-04-25 01:04 34.61139 -119.81689 22778 ft 413 kts 305°
2026-04-25 01:04 34.63010 -119.84361 23118 ft 414 kts 305°
2026-04-25 01:04 34.64881 -119.87033 23440 ft 415 kts 305°
2026-04-25 01:05 34.66753 -119.89709 23709 ft 416 kts 305°
2026-04-25 01:05 34.68613 -119.92369 23940 ft 418 kts 305°
2026-04-25 01:05 34.70497 -119.95067 24213 ft 419 kts 305°
2026-04-25 01:05 34.72391 -119.97779 24466 ft 420 kts 305°
2026-04-25 01:06 34.74284 -120.00494 24715 ft 422 kts 305°
2026-04-25 01:06 34.76188 -120.03225 24974 ft 423 kts 305°
2026-04-25 01:06 34.78094 -120.05961 25244 ft 424 kts 305°
2026-04-25 01:06 34.79986 -120.08679 25475 ft 426 kts 305°
2026-04-25 01:07 34.81911 -120.11448 25726 ft 428 kts 305°
2026-04-25 01:07 34.83844 -120.14227 25969 ft 429 kts 305°
2026-04-25 01:07 34.85777 -120.17012 26224 ft 431 kts 305°
2026-04-25 01:07 34.87719 -120.19811 26474 ft 432 kts 305°
2026-04-25 01:08 34.89639 -120.22583 26744 ft 434 kts 305°
2026-04-25 01:08 34.91589 -120.25402 26976 ft 435 kts 304°
2026-04-25 01:08 34.93545 -120.28233 27228 ft 436 kts 304°
2026-04-25 01:08 34.95511 -120.31074 27482 ft 438 kts 305°
2026-04-25 01:09 34.97479 -120.33916 27724 ft 438 kts 304°
2026-04-25 01:09 34.99429 -120.36740 27883 ft 441 kts 304°
2026-04-25 01:09 35.01412 -120.39614 28111 ft 443 kts 304°
2026-04-25 01:09 35.03407 -120.42510 28350 ft 444 kts 304°
2026-04-25 01:10 35.05397 -120.45398 28575 ft 446 kts 304°
2026-04-25 01:10 35.07380 -120.48280 28776 ft 447 kts 304°